STARLINK-34853, 65892

Orbit data source: Space-Track

STARLINK-34853, 65892 is a payload satellite owned by SpaceX/Seattle (US) in LEO that was launched on Tue, 07 Oct 2025 UTC via an FALCON 9 launch vehicle from the Air Force Eastern Test Range (AFETR). Payload-class satellites include a variety of spacecraft equipped with specific instruments for various scientific and technological missions. These include communications satellites like Starlink; space stations such as the ISS; scientific satellites like the Hubble; Earth observation satellites from companies like Planet Labs, Umbra, and HawkEye 360; GPS; miniature CubeSats for education and research; and military/defense satellites.

Loading next visibility...
Identifier
65892, 2025-224L
Orbit
LEO
Country
Flag of USUS
Related business
Manufacturer
SpaceX/Seattle
Mission
Operational Commercial Communications
Bus & Motor
STARLINK V2MO, Unknown motor
Mass
575 kg wet, ~530 kg dry
Launch date (UTC)
2025-10-07 (5 months ago)
Launch vehicle
FALCON 9
Launch site
Air Force Eastern Test Range (AFETR)
Object type
Payload
Rocket body
Debris
Shape & HBR
Box + 2 Pan, 17.7 m
Radar Cross Section
36.964 m²

Expand to show TLE details & history
Last TLE update: 11 hours ago

TLE from 11 hours ago
0 STARLINK-34853
1 65892U 25224L   26062.34498023  .00029906  00000-0  10175-2 0  9996
2 65892  53.1604  40.7701 0001139  90.0238 270.0894 15.30207719 23837
Epoch: 2026-03-03T08:16Z
TLE epoch observation values (Epoch: 2026-03-03T08:16:46.291Z)
Latitude
0.00002°
Longitude
115.45186°
Altitude
476.091 km
Speed
7.629 km/s
True Right ascension
02h 43m 04s
True Declination
0° 00' 00"
Sunlit
Object was in daylight at epoch
Visualization orbit readout
Latitude
Unknown
Longitude
Unknown
Altitude
Unknown
Speed
Unknown
Apparent Right ascension
Unknown
Apparent Declination
Unknown
Sunlit
N/A
Visualization observer readout
Local Sidereal Time
23:07:12
Azimuth
Unknown
Elevation
Unknown
Doppler factor
Unknown
Orbital elements
Apogee altitude
476.229 km
Perigee altitude
474.668 km
Semi-major axis
6,853.585 km
Eccentricity
0.00011
Inclination
53.1604°
RAAN
40.7701°
Arg. of periapsis
90.0238°
True anomaly
270.07635°
Mean anomaly
270.0894°
Eccentric anomaly
270.08287°
Mean motion
3.82531 °/min
Orbital period
94.11 mins
BSTAR
0.0010175
Loading maneuver chart data...
Computing Atmospheric mass density...
Loading historical data...
Loading historical data...
Loading historical data...
Loading historical data...
Loading historical data...
Loading historical data...
Loading historical data...

Documentation

Showing up to 5 results
|